Theta_e
330 329 328 329 332 334 336 337 334 329 328 328 328 326 324 323 324 329 328 327 325 330 330 329 329 325 323 317 314 313 314 314 314 315 316 322 319 317 320 321 320 319 321 320 315 311 309 310 311
329 333 333 335 337 341 339 336 333 327 327 328 328 327 324 323 325 327 327 326 326 327 327 327 327 325 324 322 319 313 314 315 316 315 316 316 317 318 321 322 323 322 324 323 322 319 315 310 311
327 332 331 334 337 340 339 334 333 328 328 328 327 327 327 324 326 327 327 325 325 325 325 327 328 328 325 323 322 316 315 318 324 322 317 316 318 317 322 323 322 322 323 326 328 323 327 319 310
332 337 337 333 334 333 334 332 330 328 327 327 327 326 326 326 324 325 325 319 325 327 328 329 329 326 323 323 322 318 320 321 321 320 318 318 319 320 323 321 320 321 322 323 328 326 325 323 319
335 337 331 334 334 335 332 334 328 326 326 326 326 326 325 325 325 325 320 322 324 324 325 324 324 323 321 323 319 316 316 317 320 322 321 322 323 316 315 318 319 320 324 326 325 328 324 318 318
334 332 330 331 332 331 330 332 331 328 328 326 325 326 326 324 323 324 322 322 323 324 324 323 323 320 321 319 318 318 319 319 318 317 317 316 315 319 320 320 320 320 321 323 325 327 326 317 314
331 329 331 331 331 331 331 332 330 329 327 325 325 325 327 326 325 324 324 324 324 324 322 320 320 322 321 321 321 323 324 325 324 323 323 322 320 320 320 320 320 320 322 321 322 326 327 317 314
332 328 329 330 330 329 331 331 332 331 328 327 327 325 327 327 325 323 323 323 323 322 323 322 323 322 321 321 322 323 326 325 324 325 323 320 320 319 318 317 318 318 320 318 324 325 327 321 308
332 328 330 330 329 330 330 326 328 329 328 328 327 325 325 327 325 324 324 324 323 323 323 323 322 322 322 321 319 325 325 325 326 325 325 323 319 317 317 321 324 325 323 319 324 325 326 324 309
331 329 330 330 329 329 329 327 326 327 328 328 326 324 325 326 325 322 324 324 323 323 323 323 323 322 321 318 322 327 326 326 325 325 325 318 317 317 317 319 323 324 324 324 324 325 326 314 310
330 330 329 330 330 330 330 326 326 325 327 328 326 325 324 324 323 322 324 324 324 324 323 323 323 321 320 316 323 325 326 326 326 325 322 323 321 318 320 322 323 322 323 324 324 324 322 320 315
330 329 330 329 330 330 328 328 326 326 328 327 326 325 325 324 323 323 323 324 324 323 323 323 322 323 316 321 319 322 326 327 327 326 323 322 323 317 323 324 324 323 323 323 324 324 320 322 319
330 330 330 330 330 330 329 327 327 326 328 327 325 324 324 325 324 324 323 324 323 324 324 323 322 322 320 316 324 326 327 326 324 324 324 325 325 321 321 322 321 322 323 324 324 324 321 322 321
330 329 330 330 331 329 328 328 327 327 328 327 325 324 324 324 324 324 324 324 324 324 324 323 323 319 324 318 327 326 327 328 326 325 324 325 326 322 321 321 321 321 323 324 323 324 324 324 321
325 325 326 328 329 327 328 328 326 328 328 327 325 326 325 324 324 324 324 324 324 324 324 323 323 326 326 324 325 327 329 329 327 326 325 324 325 324 320 322 322 321 322 324 323 324 325 324 322
322 324 326 326 326 327 326 327 326 328 328 327 327 327 326 325 325 324 324 324 325 325 324 326 324 326 326 325 326 328 329 328 327 325 326 325 323 322 319 321 323 321 322 322 323 324 326 325 326
321 323 324 327 327 327 326 327 327 328 328 327 328 328 327 326 325 324 325 325 325 326 323 327 325 326 326 322 328 329 330 327 326 326 326 324 322 321 319 321 323 321 322 321 322 324 326 325 326
321 323 325 327 327 326 327 329 327 328 327 327 328 329 328 327 326 325 325 325 326 325 322 324 322 325 323 324 328 329 326 326 328 326 327 325 324 323 319 321 323 321 323 322 323 324 324 326 323
322 324 325 327 327 327 329 329 328 328 328 327 328 329 329 329 326 325 325 325 325 326 323 322 327 327 325 325 329 329 328 327 327 327 328 327 325 323 321 321 323 322 322 323 323 325 326 325 327
323 323 323 324 326 328 329 329 328 329 328 328 328 328 328 328 325 325 325 325 326 326 323 325 328 328 326 327 329 329 328 329 328 328 328 328 325 325 322 322 323 322 322 323 324 326 326 326 327
324 324 323 324 326 326 327 326 327 329 328 329 329 328 329 327 326 326 326 326 326 325 324 327 328 328 324 328 330 329 329 328 328 328 326 327 324 324 323 324 324 322 322 321 325 325 326 326 328
323 324 324 325 327 326 328 326 327 327 325 326 327 327 328 327 326 326 326 327 327 325 325 327 328 326 330 328 325 325 327 328 328 328 327 325 324 324 324 323 323 323 323 323 325 325 325 327 328
324 324 324 326 326 326 326 325 325 327 327 325 324 328 328 327 327 326 326 327 327 325 324 328 327 326 328 330 330 328 329 327 328 327 326 327 324 325 323 324 324 326 324 324 325 326 326 324 327
324 324 325 325 326 326 327 326 326 327 327 324 324 325 329 328 327 327 327 328 327 326 324 326 328 327 329 331 330 328 328 326 327 325 326 326 327 325 325 323 323 326 326 323 324 324 324 323 327
324 323 324 326 325 325 326 326 325 325 326 323 326 329 329 329 328 327 328 328 326 325 324 327 329 327 327 330 328 328 329 325 325 325 326 327 327 325 324 324 321 325 326 323 324 324 325 324 325
322 323 324 327 329 326 326 327 326 327 326 326 328 330 330 329 328 328 328 328 325 325 324 325 329 327 326 327 328 328 328 325 326 325 325 328 327 325 323 324 321 325 326 322 323 325 326 325 325
322 324 323 325 326 325 325 326 330 325 323 325 329 329 329 329 328 328 328 327 325 325 323 324 327 327 326 326 328 328 329 328 328 326 324 328 326 324 324 323 321 321 321 324 325 326 325 324 329
322 325 326 323 325 327 327 327 328 325 324 329 330 329 329 328 329 328 328 326 325 325 323 324 326 326 326 326 328 328 330 328 329 326 325 327 326 326 325 325 325 325 325 325 325 326 327 329 329
321 326 324 321 321 324 326 327 325 326 330 330 330 330 329 328 328 328 328 326 325 324 324 324 327 326 325 325 327 329 329 330 328 326 325 326 328 326 327 327 326 325 325 325 326 326 325 325 326
322 324 324 325 327 324 325 327 331 331 331 329 331 331 329 328 328 328 327 326 325 323 324 324 326 325 324 325 326 329 329 329 327 326 326 326 327 326 326 326 325 325 326 326 326 325 324 326 326
Wind_Speed
8 7 6 3 1 2 5 9 5 6 5 14 11 8 7 12 5 4 16 9 3 7 8 9 8 8 8 11 11 11 11 12 13 13 14 13 15 13 12 13 14 14 14 14 14 14 14 13 12
10 9 4 5 2 2 5 11 11 4 10 10 4 8 15 3 18 18 15 8 6 5 9 12 11 9 12 15 15 14 13 14 14 14 15 17 19 18 14 13 15 14 14 14 13 14 15 15 13
12 6 6 4 4 7 4 8 14 8 12 7 4 11 7 13 19 23 16 11 9 7 10 13 10 9 11 14 16 16 16 15 15 16 18 19 19 18 18 19 19 18 18 16 16 14 14 15 14
6 5 8 2 10 13 2 8 5 4 5 8 9 7 10 10 15 14 12 3 4 7 6 10 8 8 11 16 17 18 16 17 19 21 21 21 20 19 19 22 21 21 20 19 19 16 15 15 14
7 6 4 5 11 15 6 17 8 5 8 3 11 7 12 14 16 15 9 11 11 10 6 9 10 13 16 18 19 18 18 21 24 23 23 21 21 23 22 23 23 22 21 21 19 20 17 17 18
5 4 3 6 13 7 6 7 17 3 11 10 9 13 10 17 16 13 8 9 15 15 15 15 16 16 16 16 15 17 15 16 19 21 24 25 25 25 24 25 26 27 26 22 21 22 19 20 20
11 3 7 14 16 15 13 8 5 8 4 5 5 3 16 17 15 13 13 14 17 15 13 12 14 14 14 11 13 14 16 18 19 22 23 25 26 26 26 26 27 27 26 24 21 24 21 20 22
14 3 11 13 12 13 16 12 15 15 8 9 7 5 8 21 20 14 16 14 8 6 8 11 9 9 10 13 15 18 17 16 21 19 21 19 21 21 19 18 18 19 21 22 22 23 22 20 23
23 5 12 17 16 17 23 7 16 17 5 8 10 14 16 27 21 14 14 11 6 9 9 8 9 12 15 16 19 14 17 20 21 24 22 26 22 17 13 13 12 14 15 18 22 21 23 20 22
17 8 21 16 19 18 17 15 20 15 18 12 9 15 17 19 18 12 14 12 14 13 15 13 11 16 20 19 13 9 10 18 22 23 25 20 16 13 13 12 14 15 14 17 19 20 21 20 22
24 17 18 21 32 32 20 13 21 17 7 6 18 20 20 20 15 13 15 13 17 21 18 15 16 19 19 17 12 16 13 16 21 23 22 14 13 10 8 7 9 14 15 14 17 20 21 21 19
19 29 31 32 34 30 11 14 14 24 19 8 8 13 19 19 19 18 15 10 18 15 14 14 16 17 18 15 13 9 12 16 22 25 18 14 11 11 8 8 10 12 13 15 17 20 21 18 16
22 23 33 36 35 29 19 14 20 28 16 8 7 9 13 15 16 18 16 18 15 14 13 15 16 16 14 12 10 10 12 14 18 16 14 15 14 13 11 11 11 13 13 13 16 20 21 17 14
30 26 28 35 31 21 13 20 27 24 18 14 11 9 12 15 17 23 24 19 16 14 13 15 14 14 12 11 11 13 14 15 17 15 16 17 15 15 13 10 11 11 15 14 15 20 20 19 19
28 22 25 25 21 17 25 18 16 23 17 15 16 18 22 18 21 27 26 23 23 18 16 13 10 10 12 14 14 16 17 17 18 15 15 16 16 17 15 11 10 9 14 19 16 17 19 19 20
17 17 18 12 11 26 19 21 15 26 20 21 24 23 20 25 27 23 23 24 22 18 14 11 9 9 11 11 10 13 17 17 16 14 13 14 16 17 15 11 11 8 13 21 18 20 20 20 19
11 15 16 17 19 22 12 19 16 27 18 21 24 25 22 23 25 25 27 25 21 15 13 12 9 9 8 8 9 12 14 16 12 14 12 12 12 13 14 11 9 8 10 19 20 23 22 22 21
13 11 14 18 23 18 14 14 10 23 25 26 28 22 25 17 30 32 27 23 19 12 11 11 9 6 8 5 8 14 16 13 10 13 15 12 10 10 14 9 6 6 8 15 20 21 23 17 16
14 14 20 23 21 21 4 22 13 14 18 13 19 17 19 27 34 30 26 22 17 11 10 8 4 7 7 5 8 12 12 11 14 15 15 15 7 8 12 9 7 8 10 16 18 20 20 17 20
18 19 23 23 20 5 18 22 16 9 8 17 21 25 23 24 36 28 25 21 17 12 10 6 6 5 7 4 8 11 15 16 14 14 13 12 7 7 12 8 7 9 10 15 18 20 18 19 22
21 20 21 19 21 17 5 6 6 5 8 19 28 31 20 31 37 32 28 23 19 12 9 8 6 8 2 2 6 9 13 12 11 7 11 9 3 4 8 7 10 12 12 13 14 19 18 21 22
21 19 22 22 17 8 1 6 4 6 10 10 20 21 27 32 34 33 30 26 19 12 9 9 10 5 3 4 8 11 12 17 14 7 9 6 5 4 8 12 13 10 10 14 15 18 18 20 21
22 16 20 22 16 7 5 2 5 4 9 14 5 24 31 39 36 33 30 23 15 12 11 12 8 4 4 5 11 11 14 15 9 2 6 7 3 4 11 14 13 12 14 13 14 16 17 16 19
24 16 17 16 9 3 6 6 9 6 7 6 4 11 35 37 34 32 25 20 15 14 15 11 7 3 1 3 10 10 14 12 6 5 5 6 3 5 13 16 16 14 13 14 12 11 21 15 22
20 14 9 3 1 6 5 4 10 10 8 7 9 23 32 33 33 31 27 22 19 19 14 11 10 4 3 4 8 9 10 9 7 6 6 5 3 5 15 17 20 17 12 16 14 13 15 17 18
18 15 7 7 4 5 7 8 14 15 12 21 30 33 32 34 33 30 26 23 21 17 15 9 10 7 4 3 4 7 9 7 10 9 10 4 5 9 12 15 18 14 12 15 13 16 16 18 18
16 13 13 5 1 2 5 7 3 9 8 11 22 32 33 33 31 29 25 22 22 17 16 11 11 6 6 3 3 7 8 6 8 8 11 7 9 11 10 13 15 15 13 15 17 19 21 23 23
24 6 6 1 8 5 5 6 5 8 9 12 13 20 30 31 30 29 27 23 21 18 15 11 9 8 6 0 4 4 6 6 10 9 10 10 11 8 10 12 14 17 20 20 20 19 21 23 23
13 10 4 7 6 5 2 7 8 7 14 14 14 27 32 33 31 29 26 22 20 18 15 15 11 8 8 5 4 4 2 5 8 10 10 12 12 12 14 13 18 19 21 22 22 20 20 20 22
15 9 7 9 5 5 6 6 8 13 12 13 21 29 31 32 31 29 27 25 19 18 15 13 12 12 7 5 7 5 3 3 7 9 10 7 11 15 15 15 20 19 22 22 21 23 23 22 21
Wind_Direction
171 153 173 247 4 152 256 277 306 56 59 72 68 82 81 82 92 178 153 194 192 179 213 244 265 292 303 316 317 305 289 285 289 292 292 292 297 293 275 279 286 285 290 285 271 260 254 239 237
179 152 227 273 181 300 293 307 287 43 137 110 124 148 102 59 113 138 149 171 181 215 264 264 275 284 297 305 305 299 288 280 280 286 285 289 291 292 283 278 277 276 279 278 272 262 253 245 241
194 184 276 193 215 227 257 263 328 31 0 131 156 129 100 133 129 151 169 170 213 276 283 270 269 269 290 296 295 291 280 278 275 278 281 283 283 282 277 277 274 275 274 270 269 260 255 249 236
175 250 256 261 254 269 153 287 242 20 356 181 143 111 99 154 146 157 159 197 186 246 248 237 247 250 286 292 292 290 280 272 271 274 278 279 276 274 272 272 273 272 267 267 266 262 249 243 234
252 263 230 262 268 268 279 232 66 22 324 17 143 114 112 143 155 166 171 165 190 221 216 245 261 282 296 301 298 294 281 273 271 275 275 274 269 271 269 267 270 270 263 264 256 256 245 236 231
263 243 304 275 283 311 279 40 350 5 301 54 45 111 147 160 168 163 173 177 192 217 230 248 263 281 295 297 298 304 298 289 283 283 280 276 273 271 272 272 269 266 262 259 257 247 245 234 230
232 289 264 279 291 308 308 54 194 246 225 102 97 93 144 168 168 175 186 196 196 218 253 267 266 286 300 287 294 295 302 299 297 293 284 275 272 272 274 272 269 264 259 255 250 242 236 233 227
235 244 278 278 287 289 296 272 229 243 196 158 175 155 174 181 180 186 202 214 217 290 247 265 264 281 261 275 289 298 301 295 303 300 303 297 283 279 272 264 263 261 256 247 241 237 229 233 225
242 250 262 267 274 278 316 353 343 330 192 235 208 191 174 176 192 196 187 207 242 229 227 221 231 252 271 286 299 290 290 300 302 304 317 304 295 290 276 259 257 261 259 242 235 231 227 231 224
232 236 249 259 269 279 302 326 329 334 312 271 174 154 168 194 199 204 182 195 222 202 185 203 237 270 286 299 279 289 294 294 293 295 299 301 294 292 283 261 245 259 260 241 229 225 220 226 222
239 241 251 255 260 273 287 321 314 304 297 324 169 171 191 201 203 198 206 228 222 205 205 228 257 280 301 314 294 262 267 289 284 289 303 300 308 292 284 253 251 255 252 241 228 217 214 220 222
245 245 249 255 260 257 263 305 293 280 273 287 183 171 200 201 199 202 204 221 194 212 228 245 283 297 311 316 314 287 267 274 283 292 292 300 302 304 277 281 276 270 251 244 228 215 214 218 219
242 246 254 261 267 261 285 268 265 269 270 278 164 185 198 213 217 213 217 210 208 209 231 263 286 300 318 319 330 325 301 296 294 293 284 283 292 310 284 283 275 268 244 235 224 214 216 210 211
248 257 256 257 267 261 263 266 263 258 258 249 205 198 203 220 226 206 199 202 210 222 244 267 282 313 320 323 324 327 327 319 317 298 279 279 276 293 291 286 278 256 236 224 217 219 214 199 191
264 268 272 270 269 268 261 253 256 270 239 238 208 224 235 228 218 209 205 221 227 235 257 271 294 313 316 319 324 318 317 320 323 303 286 278 275 272 288 282 277 259 232 222 212 211 201 204 192
279 273 263 257 270 268 258 259 245 242 244 241 233 239 226 217 215 213 210 216 217 225 250 262 283 272 285 303 314 326 314 318 331 327 299 292 272 264 269 271 275 268 242 221 210 200 195 202 199
255 258 262 269 246 262 243 253 257 221 230 252 239 243 225 234 211 214 197 204 213 210 225 246 272 286 284 303 332 326 316 321 330 336 327 299 278 262 251 257 265 278 251 207 208 201 195 197 201
234 255 252 258 258 256 265 310 202 208 218 234 251 226 231 221 199 183 188 196 205 214 222 237 262 275 294 311 332 329 329 321 323 341 345 319 275 257 233 240 251 246 210 193 195 199 203 203 195
238 243 246 254 255 249 344 269 254 208 221 229 241 248 259 237 181 175 186 191 199 211 217 243 266 291 299 311 325 333 340 324 314 325 335 341 306 246 228 223 228 206 204 191 190 188 192 187 178
227 245 259 272 277 229 209 248 249 208 217 238 248 259 260 167 158 171 183 190 202 201 207 219 250 269 299 304 319 327 334 331 314 314 329 327 311 248 209 209 207 183 183 187 184 197 189 190 178
238 231 250 259 277 285 284 320 313 265 247 271 267 256 170 170 166 174 182 188 192 195 193 204 221 258 303 322 319 322 323 328 336 306 334 339 331 186 189 181 172 168 181 177 195 191 197 183 182
239 222 236 250 260 260 336 283 301 301 299 295 281 148 156 169 173 179 181 184 189 190 186 193 218 259 273 321 315 335 349 341 341 307 332 358 8 149 167 161 156 154 153 170 175 175 189 186 184
240 222 230 240 249 239 282 286 251 269 289 291 186 158 166 170 176 179 179 178 181 180 188 190 231 240 251 327 347 358 350 351 353 16 0 13 37 150 162 166 149 151 139 158 157 167 180 196 184
230 232 239 240 231 236 222 180 269 234 234 211 143 170 163 166 171 172 169 171 169 178 188 199 207 232 103 312 330 353 9 9 47 59 10 9 2 150 168 170 164 168 153 157 164 166 173 176 181
219 220 238 288 230 220 218 280 248 264 229 171 131 122 146 160 163 162 167 166 167 180 191 186 194 236 143 233 327 355 4 19 49 21 13 39 48 134 168 169 172 170 166 163 171 166 162 164 170
223 203 200 209 182 244 252 243 249 236 209 118 136 140 147 154 162 165 167 167 173 182 190 197 194 179 161 222 334 355 16 45 41 46 32 35 92 128 146 168 171 172 163 168 164 161 163 162 172
231 207 190 167 256 197 235 277 22 144 138 121 130 138 147 155 161 162 167 172 177 184 191 185 183 179 185 266 44 25 21 36 31 28 26 63 103 129 137 151 167 172 172 159 159 160 164 168 173
212 178 152 74 201 246 294 299 234 156 178 115 129 135 151 157 162 165 169 173 180 187 186 177 181 177 192 38 95 48 19 37 27 28 30 101 96 112 140 149 148 150 151 156 156 159 165 159 156
220 203 143 133 147 170 225 270 211 161 136 133 143 148 156 162 163 167 168 175 181 187 186 181 184 187 187 159 148 120 49 23 37 49 77 109 93 98 122 127 143 146 148 154 156 150 148 154 156
212 171 150 180 212 205 178 264 133 147 149 137 147 155 160 164 166 169 170 173 179 186 192 190 188 186 187 167 144 130 171 66 79 52 81 110 114 112 122 131 140 143 143 150 153 150 144 136 138